Location: Unspecified
(0.0000°N, 0.0000°E)
Time: 11:49:45
(UTC+00:00)

Envisat - Pass Details

Date: 17 June 2021
Orbit: 764 x 766 km, 98.1° (Epoch: 18 June)

Event Time Altitude Azimuth Distance (km) Brightness Sun altitude
Rises 04:29:41 0° 27° (NNE) 3,214 7.0 -20.9°
Reaches altitude 10° 04:32:07 10° 35° (NE) 2,291 6.3 -20.3°
Maximum altitude 04:36:46 38° 102° (ESE) 1,157 4.3 -19.2°
Drops below altitude 10° 04:41:27 10° 169° (S) 2,301 5.3 -18.2°
Sets 04:43:53 0° 177° (S) 3,230 6.0 -17.6°
